Location: *
(23.5860°S, 65.4036°W)
Time: 04:21:58
(UTC+00:00)

GPS 2-14 Rocket1 - Pass Details

Date: 25 August 2019
Orbit: 477 x 543 km, 20.7° (Epoch: 14 October)

Event Time Altitude Azimuth Distance (km) Brightness Sun altitude
Rises 23:29:37 0° 287° (WNW) 2,568 7.7 -19.2°
Reaches altitude 10° 23:31:52 10° 293° (WNW) 1,699 6.4 -19.7°
Maximum altitude 23:35:40 47° 8° (N) 679 3.2 -20.6°
Enters shadow 23:36:01 45° 26° (NNE) 695 3.1 -20.7°
